{"data":{"norad_id":68248,"epoch":"2026-05-25T03:03:49.144032Z","epoch_age_seconds":67134,"freshness":"FRESH","line1":"1 68248U 26054S   26145.12765213  .00017580  00000+0  60394-3 0  9995","line2":"2 68248  53.1573 301.9488 0000777  56.5862 303.5213 15.30217546 10697","mean_motion":15.30217546,"eccentricity":7.77e-5,"inclination_deg":53.1573,"raan_deg":301.9488,"arg_perigee_deg":56.5862,"mean_anomaly_deg":303.5213,"bstar":0.00060394,"rev_number":1069,"period_min":94.104266662225,"perigee_km":474.63017934141,"apogee_km":475.6951821118,"semimajor_km":6853.2996807266,"source":"CELESTRAK","updated_at":"2026-05-25T13:38:21.886446Z"}}